| time (UTC) | temp F | wind direction | speed MPH | gust MPH | rain 1hr in | rain 24hr in | rain mn in | humidity % | barometer mb |
| 20260505102023 | 66 | 45 | 3.0 | 6.0 | 0.00 | 0.00 | 0.00 | 59 | 1012.2 |
| 20260505101522 | 67 | 135 | 1.0 | 3.0 | 0.00 | 0.00 | 0.00 | 50 | 1012.3 |
| 20260505101023 | 67 | 135 | 1.0 | 5.0 | 0.00 | 0.00 | 0.00 | 48 | 1012.3 |
| 20260505100523 | 67 | 158 | 2.0 | 4.0 | 0.00 | 0.00 | 0.00 | 48 | 1012.4 |
| 20260505100023 | 67 | 135 | 2.0 | 5.0 | 0.00 | 0.00 | 0.00 | 47 | 1012.4 |
| 20260505095523 | 67 | 135 | 3.0 | 7.0 | 0.00 | 0.00 | 0.00 | 46 | 1012.4 |
| 20260505095023 | 68 | 158 | 3.0 | 6.0 | 0.00 | 0.00 | 0.00 | 45 | 1012.5 |
| 20260505094523 | 68 | 158 | 4.0 | 7.0 | 0.00 | 0.00 | 0.00 | 45 | 1012.7 |
| 20260505094024 | 68 | 135 | 4.0 | 9.0 | 0.00 | 0.00 | 0.00 | 45 | 1012.8 |
| 20260505093523 | 68 | 135 | 3.0 | 6.0 | 0.00 | 0.00 | 0.00 | 44 | 1012.8 |
| 20260505093043 | 68 | 158 | 2.0 | 5.0 | 0.00 | 0.00 | 0.00 | 44 | 1012.7 |
| 20260505092523 | 68 | 135 | 3.0 | 8.0 | 0.00 | 0.00 | 0.00 | 44 | 1012.8 |
| 20260505092023 | 68 | 135 | 3.0 | 8.0 | 0.00 | 0.00 | 0.00 | 43 | 1012.8 |
| 20260505091523 | 68 | 135 | 4.0 | 8.0 | 0.00 | 0.00 | 0.00 | 43 | 1012.7 |
| 20260505091023 | 68 | 158 | 2.0 | 4.0 | 0.00 | 0.00 | 0.00 | 42 | 1012.6 |
| 20260505090523 | 69 | 180 | 3.0 | 5.0 | 0.00 | 0.00 | 0.00 | 42 | 1012.8 |
| 20260505090023 | 69 | 135 | 3.0 | 7.0 | 0.00 | 0.00 | 0.00 | 41 | 1012.8 |
| 20260505085524 | 69 | 135 | 5.0 | 8.0 | 0.00 | 0.00 | 0.00 | 41 | 1012.9 |
| 20260505085103 | 69 | 158 | 5.0 | 9.0 | 0.00 | 0.00 | 0.00 | 40 | 1013.0 |
| 20260505084523 | 69 | 158 | 7.0 | 12.0 | 0.00 | 0.00 | 0.00 | 40 | 1013.1 |
| 20260505084023 | 69 | 135 | 7.0 | 13.0 | 0.00 | 0.00 | 0.00 | 40 | 1013.1 |
| 20260505083523 | 69 | 180 | 6.0 | 11.0 | 0.00 | 0.00 | 0.00 | 40 | 1013.0 |
| 20260505083022 | 69 | 158 | 6.0 | 11.0 | 0.00 | 0.00 | 0.00 | 40 | 1013.0 |
| 20260505082523 | 69 | 158 | 3.0 | 5.0 | 0.00 | 0.00 | 0.00 | 41 | 1013.0 |
| 20260505082103 | 69 | 158 | 2.0 | 7.0 | 0.00 | 0.00 | 0.00 | 39 | 1013.0 |
| 20260505081523 | 69 | 135 | 2.0 | 5.0 | 0.00 | 0.00 | 0.00 | 39 | 1012.9 |
| 20260505081024 | 69 | 135 | 1.0 | 5.0 | 0.00 | 0.00 | 0.00 | 38 | 1012.8 |
| 20260505080523 | 70 | 135 | 2.0 | 4.0 | 0.00 | 0.00 | 0.00 | 38 | 1012.8 |
| 20260505080024 | 70 | 135 | 2.0 | 5.0 | 0.00 | 0.00 | 0.00 | 39 | 1012.9 |
| 20260505075523 | 70 | 135 | 3.0 | 8.0 | 0.00 | 0.00 | 0.00 | 41 | 1012.9 |
| 20260505075104 | 70 | 135 | 4.0 | 9.0 | 0.00 | 0.00 | 0.00 | 41 | 1012.9 |
| 20260505074524 | 70 | 135 | 4.0 | 7.0 | 0.00 | 0.00 | 0.00 | 41 | 1012.9 |
| 20260505074023 | 70 | 135 | 5.0 | 11.0 | 0.00 | 0.00 | 0.00 | 41 | 1012.9 |
| 20260505073523 | 70 | 135 | 4.0 | 8.0 | 0.00 | 0.00 | 0.00 | 41 | 1012.9 |
| 20260505073023 | 70 | 135 | 4.0 | 10.0 | 0.00 | 0.00 | 0.00 | 41 | 1012.8 |
| 20260505072523 | 70 | 158 | 5.0 | 9.0 | 0.00 | 0.00 | 0.00 | 41 | 1012.9 |
| 20260505072023 | 70 | 158 | 4.0 | 7.0 | 0.00 | 0.00 | 0.00 | 41 | 1012.9 |
| 20260505071543 | 71 | 158 | 3.0 | 6.0 | 0.00 | 0.00 | 0.00 | 42 | 1012.8 |
| 20260505071023 | 71 | 158 | 5.0 | 9.0 | 0.00 | 0.00 | 0.00 | 42 | 1012.8 |
| 20260505070523 | 71 | 135 | 4.0 | 10.0 | 0.00 | 0.00 | 0.00 | 43 | 1012.8 |
| 20260505070023 | 71 | 180 | 4.0 | 10.0 | 0.00 | 0.00 | 0.00 | 43 | 1012.9 |
| 20260505065525 | 71 | 158 | 6.0 | 9.0 | 0.00 | 0.00 | 0.00 | 43 | 1012.7 |
| 20260505065023 | 71 | 158 | 5.0 | 8.0 | 0.00 | 0.00 | 0.00 | 44 | 1012.8 |
| 20260505064523 | 71 | 158 | 5.0 | 8.0 | 0.00 | 0.00 | 0.00 | 44 | 1012.8 |
| 20260505064023 | 71 | 158 | 5.0 | 9.0 | 0.00 | 0.00 | 0.00 | 44 | 1012.8 |
| 20260505063543 | 71 | 158 | 4.0 | 6.0 | 0.00 | 0.00 | 0.00 | 44 | 1012.6 |
| 20260505063045 | 71 | 158 | 5.0 | 8.0 | 0.00 | 0.00 | 0.00 | 44 | 1012.5 |
| 20260505062523 | 71 | 158 | 4.0 | 7.0 | 0.00 | 0.00 | 0.00 | 44 | 1012.5 |
| 20260505062023 | 71 | 158 | 3.0 | 10.0 | 0.00 | 0.00 | 0.00 | 43 | 1012.5 |
| 20260505061523 | 71 | 135 | 4.0 | 6.0 | 0.00 | 0.00 | 0.00 | 43 | 1012.4 |
| 20260505061025 | 71 | 180 | 4.0 | 7.0 | 0.00 | 0.00 | 0.00 | 43 | 1012.3 |
| 20260505060523 | 71 | 180 | 3.0 | 6.0 | 0.00 | 0.00 | 0.00 | 43 | 1012.2 |
| 20260505060024 | 71 | 180 | 3.0 | 5.0 | 0.00 | 0.00 | 0.00 | 43 | 1012.1 |
| 20260505055523 | 71 | 180 | 2.0 | 4.0 | 0.00 | 0.00 | 0.00 | 43 | 1012.2 |
| 20260505055023 | 71 | 158 | 4.0 | 6.0 | 0.00 | 0.00 | 0.00 | 43 | 1012.2 |
| 20260505054523 | 71 | 158 | 5.0 | 8.0 | 0.00 | 0.00 | 0.00 | 42 | 1012.3 |
| 20260505054045 | 71 | 158 | 5.0 | 9.0 | 0.00 | 0.00 | 0.00 | 42 | 1012.4 |
| 20260505053523 | 71 | 158 | 5.0 | 8.0 | 0.00 | 0.00 | 0.00 | 42 | 1012.4 |
| 20260505053023 | 71 | 158 | 3.0 | 6.0 | 0.00 | 0.00 | 0.00 | 42 | 1012.5 |
| 20260505052524 | 71 | 158 | 4.0 | 7.0 | 0.00 | 0.00 | 0.00 | 42 | 1012.5 |
| 20260505052023 | 71 | 158 | 3.0 | 5.0 | 0.00 | 0.00 | 0.00 | 42 | 1012.7 |
| 20260505051523 | 72 | 158 | 4.0 | 6.0 | 0.00 | 0.00 | 0.00 | 41 | 1012.7 |
| 20260505051023 | 72 | 158 | 4.0 | 7.0 | 0.00 | 0.00 | 0.00 | 41 | 1012.8 |
| 20260505050523 | 72 | 158 | 1.0 | 4.0 | 0.00 | 0.00 | 0.00 | 40 | 1012.9 |
| 20260505041524 | 72 | 180 | 3.0 | 5.0 | 0.00 | 0.00 | 0.00 | 40 | 1012.7 |
| 20260505041023 | 72 | 180 | 3.0 | 6.0 | 0.00 | 0.00 | 0.00 | 40 | 1012.8 |
| 20260505040523 | 72 | 158 | 3.0 | 6.0 | 0.00 | 0.00 | 0.00 | 40 | 1012.7 |
| 20260505040023 | 72 | 158 | 4.0 | 7.0 | 0.00 | 0.00 | 0.00 | 40 | 1012.7 |
| 20260505035523 | 72 | 158 | 3.0 | 5.0 | 0.00 | 0.00 | 0.00 | 40 | 1012.6 |
| 20260505035023 | 72 | 158 | 3.0 | 6.0 | 0.00 | 0.00 | 0.00 | 40 | 1012.6 |
| 20260505034543 | 72 | 158 | 4.0 | 6.0 | 0.00 | 0.00 | 0.00 | 40 | 1012.5 |
| 20260505034023 | 72 | 180 | 3.0 | 6.0 | 0.00 | 0.00 | 0.00 | 40 | 1012.3 |
| 20260505033523 | 72 | 180 | 3.0 | 5.0 | 0.00 | 0.00 | 0.00 | 40 | 1012.2 |
| 20260505033024 | 72 | 180 | 3.0 | 6.0 | 0.00 | 0.00 | 0.00 | 40 | 1012.1 |
| 20260505032604 | 72 | 180 | 4.0 | 6.0 | 0.00 | 0.00 | 0.00 | 40 | 1012.1 |
| 20260505032023 | 72 | 180 | 4.0 | 6.0 | 0.00 | 0.00 | 0.00 | 41 | 1012.1 |
| 20260505031523 | 72 | 180 | 3.0 | 8.0 | 0.00 | 0.00 | 0.00 | 40 | 1011.9 |
| 20260505031043 | 72 | 180 | 4.0 | 6.0 | 0.00 | 0.00 | 0.00 | 40 | 1011.9 |
| 20260505030523 | 72 | 158 | 3.0 | 7.0 | 0.00 | 0.00 | 0.00 | 40 | 1011.9 |
| 20260505030046 | 72 | 158 | 3.0 | 6.0 | 0.00 | 0.00 | 0.00 | 40 | 1011.9 |
| 20260505025523 | 72 | 180 | 4.0 | 6.0 | 0.00 | 0.00 | 0.00 | 40 | 1012.0 |
| 20260505025023 | 72 | 158 | 3.0 | 5.0 | 0.00 | 0.00 | 0.00 | 40 | 1012.0 |
| 20260505024523 | 72 | 180 | 3.0 | 5.0 | 0.00 | 0.00 | 0.00 | 40 | 1011.9 |
| 20260505024023 | 73 | 180 | 3.0 | 7.0 | 0.00 | 0.00 | 0.00 | 40 | 1012.0 |
| 20260505023544 | 73 | 180 | 2.0 | 4.0 | 0.00 | 0.00 | 0.00 | 40 | 1011.9 |
| 20260505023023 | 73 | 180 | 4.0 | 7.0 | 0.00 | 0.00 | 0.00 | 40 | 1011.7 |
| 20260505022523 | 73 | 180 | 4.0 | 7.0 | 0.00 | 0.00 | 0.00 | 40 | 1011.7 |
| 20260505022023 | 73 | 180 | 4.0 | 8.0 | 0.00 | 0.00 | 0.00 | 40 | 1011.5 |
| 20260505021523 | 73 | 180 | 4.0 | 8.0 | 0.00 | 0.00 | 0.00 | 40 | 1011.5 |
| 20260505021023 | 73 | 180 | 6.0 | 11.0 | 0.00 | 0.00 | 0.00 | 40 | 1011.6 |
| 20260505020524 | 73 | 203 | 6.0 | 11.0 | 0.00 | 0.00 | 0.00 | 40 | 1011.6 |
| 20260505020023 | 73 | 180 | 5.0 | 9.0 | 0.00 | 0.00 | 0.00 | 39 | 1011.6 |
| 20260505015523 | 73 | 180 | 5.0 | 8.0 | 0.00 | 0.00 | 0.00 | 38 | 1011.5 |
| 20260505015023 | 74 | 158 | 5.0 | 8.0 | 0.00 | 0.00 | 0.00 | 38 | 1011.4 |
| 20260505014543 | 74 | 203 | 5.0 | 8.0 | 0.00 | 0.00 | 0.00 | 38 | 1011.6 |
| 20260505014043 | 74 | 203 | 5.0 | 10.0 | 0.00 | 0.00 | 0.00 | 37 | 1011.5 |
| 20260505013524 | 74 | 203 | 4.0 | 6.0 | 0.00 | 0.00 | 0.00 | 36 | 1011.5 |
| 20260505013023 | 74 | 180 | 5.0 | 8.0 | 0.00 | 0.00 | 0.00 | 36 | 1011.5 |
| 20260505012523 | 74 | 180 | 4.0 | 8.0 | 0.00 | 0.00 | 0.00 | 36 | 1011.5 |
| 20260505012024 | 74 | 180 | 4.0 | 7.0 | 0.00 | 0.00 | 0.00 | 36 | 1011.5 |
| 20260505011524 | 74 | 180 | 4.0 | 7.0 | 0.00 | 0.00 | 0.00 | 37 | 1011.5 |
| 20260505011023 | 74 | 203 | 3.0 | 6.0 | 0.00 | 0.00 | 0.00 | 36 | 1011.5 |
| 20260505010523 | 75 | 158 | 3.0 | 6.0 | 0.00 | 0.00 | 0.00 | 37 | 1011.4 |
| 20260505010024 | 75 | 203 | 3.0 | 5.0 | 0.00 | 0.00 | 0.00 | 37 | 1011.5 |
| 20260505005543 | 75 | 158 | 3.0 | 5.0 | 0.00 | 0.00 | 0.00 | 37 | 1011.6 |
| 20260505005043 | 75 | 180 | 3.0 | 5.0 | 0.00 | 0.00 | 0.00 | 36 | 1011.6 |
| 20260505004523 | 75 | 158 | 1.0 | 4.0 | 0.00 | 0.00 | 0.00 | 36 | 1011.6 |
| 20260505004043 | 75 | 135 | 1.0 | 4.0 | 0.00 | 0.00 | 0.00 | 36 | 1011.7 |
| 20260505003543 | 75 | 135 | 3.0 | 4.0 | 0.00 | 0.00 | 0.00 | 36 | 1011.7 |
| 20260505003024 | 75 | 158 | 4.0 | 7.0 | 0.00 | 0.00 | 0.00 | 35 | 1011.8 |
| 20260505002524 | 76 | 135 | 4.0 | 7.0 | 0.00 | 0.00 | 0.00 | 35 | 1011.8 |
| 20260505002023 | 76 | 158 | 3.0 | 6.0 | 0.00 | 0.00 | 0.00 | 36 | 1011.8 |
| 20260505001523 | 75 | 158 | 4.0 | 8.0 | 0.00 | 0.00 | 0.00 | 36 | 1011.8 |
| 20260505001023 | 76 | 158 | 2.0 | 4.0 | 0.00 | 0.00 | 0.00 | 37 | 1011.9 |
| 20260505000544 | 75 | 158 | 3.0 | 7.0 | 0.00 | 0.00 | 0.00 | 36 | 1012.0 |
| 20260505000043 | 75 | 135 | 5.0 | 9.0 | 0.00 | 0.00 | 0.00 | 37 | 1012.0 |
| 20260504235624 | 76 | 180 | 6.0 | 10.0 | 0.00 | 0.00 | 0.00 | 36 | 1011.9 |
| 20260504235023 | 76 | 158 | 3.0 | 7.0 | 0.00 | 0.00 | 0.00 | 36 | 1011.9 |
| 20260504234523 | 76 | 158 | 4.0 | 9.0 | 0.00 | 0.00 | 0.00 | 37 | 1011.9 |
| 20260504234023 | 76 | 158 | 6.0 | 9.0 | 0.00 | 0.00 | 0.00 | 37 | 1011.9 |
| 20260504233524 | 76 | 158 | 6.0 | 9.0 | 0.00 | 0.00 | 0.00 | 37 | 1011.9 |
| 20260504233023 | 76 | 180 | 5.0 | 9.0 | 0.00 | 0.00 | 0.00 | 37 | 1011.9 |
| 20260504232524 | 76 | 158 | 4.0 | 7.0 | 0.00 | 0.00 | 0.00 | 36 | 1011.9 |
| 20260504232024 | 76 | 158 | 2.0 | 5.0 | 0.00 | 0.00 | 0.00 | 37 | 1011.8 |
| 20260504231605 | 76 | 158 | 4.0 | 8.0 | 0.00 | 0.00 | 0.00 | 37 | 1011.9 |
| 20260504231025 | 76 | 158 | 5.0 | 9.0 | 0.00 | 0.00 | 0.00 | 37 | 1011.9 |
| 20260504230524 | 76 | 158 | 5.0 | 9.0 | 0.00 | 0.00 | 0.00 | 36 | 1012.0 |
| 20260504230023 | 76 | 203 | 2.0 | 5.0 | 0.00 | 0.00 | 0.00 | 37 | 1012.1 |
| 20260504225523 | 76 | 158 | 3.0 | 7.0 | 0.00 | 0.00 | 0.00 | 37 | 1012.1 |
| 20260504225044 | 76 | 158 | 4.0 | 14.0 | 0.00 | 0.00 | 0.00 | 36 | 1012.0 |
| 20260504224544 | 76 | 158 | 4.0 | 7.0 | 0.00 | 0.00 | 0.00 | 36 | 1012.0 |
| 20260504224023 | 76 | 135 | 3.0 | 6.0 | 0.00 | 0.00 | 0.00 | 36 | 1012.1 |
| 20260504223523 | 76 | 135 | 1.0 | 6.0 | 0.00 | 0.00 | 0.00 | 37 | 1012.1 |
| 20260504223024 | 75 | 203 | 3.0 | 7.0 | 0.00 | 0.00 | 0.00 | 37 | 1012.1 |
| 20260504222523 | 75 | 0 | 3.0 | 6.0 | 0.00 | 0.00 | 0.00 | 38 | 1012.2 |
| 20260504222023 | 76 | 45 | 2.0 | 4.0 | 0.00 | 0.00 | 0.00 | 37 | 1012.4 |
| 20260504221523 | 76 | 158 | 4.0 | 8.0 | 0.00 | 0.00 | 0.00 | 37 | 1012.5 |
| 20260504221023 | 75 | 158 | 5.0 | 9.0 | 0.00 | 0.00 | 0.00 | 38 | 1012.6 |
| 20260504220523 | 75 | 203 | 4.0 | 10.0 | 0.00 | 0.00 | 0.00 | 38 | 1012.5 |
| 20260504220024 | 75 | 203 | 5.0 | 8.0 | 0.00 | 0.00 | 0.00 | 38 | 1012.8 |
| 20260504215523 | 75 | 180 | 4.0 | 8.0 | 0.00 | 0.00 | 0.00 | 37 | 1012.9 |
| 20260504215023 | 76 | 180 | 6.0 | 8.0 | 0.00 | 0.00 | 0.00 | 37 | 1012.9 |
| 20260504214523 | 76 | 158 | 6.0 | 11.0 | 0.00 | 0.00 | 0.00 | 37 | 1013.0 |
| 20260504214044 | 75 | 203 | 3.0 | 9.0 | 0.00 | 0.00 | 0.00 | 38 | 1012.8 |
| 20260504213525 | 75 | 203 | 4.0 | 8.0 | 0.00 | 0.00 | 0.00 | 37 | 1012.9 |
| 20260504213023 | 76 | 135 | 4.0 | 7.0 | 0.00 | 0.00 | 0.00 | 37 | 1013.1 |
| 20260504212523 | 76 | 135 | 3.0 | 7.0 | 0.00 | 0.00 | 0.00 | 37 | 1013.2 |
| 20260504212023 | 75 | 135 | 5.0 | 9.0 | 0.00 | 0.00 | 0.00 | 38 | 1013.0 |
| 20260504211543 | 75 | 158 | 5.0 | 10.0 | 0.00 | 0.00 | 0.00 | 38 | 1013.2 |
| 20260504211024 | 75 | 203 | 2.0 | 6.0 | 0.00 | 0.00 | 0.00 | 38 | 1013.3 |
| 20260504210523 | 75 | 158 | 5.0 | 9.0 | 0.00 | 0.00 | 0.00 | 38 | 1013.5 |
| 20260504210023 | 75 | 158 | 3.0 | 8.0 | 0.00 | 0.00 | 0.00 | 39 | 1013.5 |
| 20260504205523 | 74 | 23 | 2.0 | 6.0 | 0.00 | 0.00 | 0.00 | 39 | 1013.3 |
| 20260504205024 | 75 | 203 | 4.0 | 9.0 | 0.00 | 0.00 | 0.00 | 39 | 1013.5 |
| 20260504204523 | 76 | 135 | 4.0 | 7.0 | 0.00 | 0.00 | 0.00 | 38 | 1013.5 |
| 20260504204106 | 75 | 158 | 6.0 | 10.0 | 0.00 | 0.00 | 0.00 | 39 | 1013.6 |
| 20260504203543 | 75 | 225 | 6.0 | 10.0 | 0.00 | 0.00 | 0.00 | 40 | 1013.7 |
| 20260504203023 | 75 | 180 | 4.0 | 9.0 | 0.00 | 0.00 | 0.00 | 40 | 1013.7 |
| 20260504202544 | 75 | 180 | 3.0 | 5.0 | 0.00 | 0.00 | 0.00 | 41 | 1013.8 |
| 20260504202023 | 75 | 180 | 6.0 | 11.0 | 0.00 | 0.00 | 0.00 | 41 | 1013.8 |
| 20260504201523 | 74 | 203 | 4.0 | 8.0 | 0.00 | 0.00 | 0.00 | 42 | 1013.7 |
| 20260504201044 | 74 | 203 | 4.0 | 8.0 | 0.00 | 0.00 | 0.00 | 42 | 1013.8 |
| 20260504200544 | 74 | 203 | 6.0 | 11.0 | 0.00 | 0.00 | 0.00 | 42 | 1013.8 |
| 20260504200023 | 74 | 158 | 5.0 | 10.0 | 0.00 | 0.00 | 0.00 | 42 | 1013.8 |
| 20260504195523 | 74 | 203 | 4.0 | 9.0 | 0.00 | 0.00 | 0.00 | 43 | 1013.4 |
| 20260504195024 | 73 | 203 | 5.0 | 10.0 | 0.00 | 0.00 | 0.00 | 43 | 1013.4 |
| 20260504194523 | 74 | 23 | 1.0 | 5.0 | 0.00 | 0.00 | 0.00 | 43 | 1013.3 |
| 20260504194105 | 73 | 158 | 4.0 | 9.0 | 0.00 | 0.00 | 0.00 | 44 | 1013.3 |
| 20260504193523 | 73 | 158 | 5.0 | 8.0 | 0.00 | 0.00 | 0.00 | 44 | 1013.7 |
| 20260504193023 | 73 | 180 | 4.0 | 7.0 | 0.00 | 0.00 | 0.00 | 44 | 1013.5 |
| 20260504192523 | 73 | 135 | 4.0 | 9.0 | 0.00 | 0.00 | 0.00 | 44 | 1013.3 |
| 20260504192023 | 73 | 135 | 5.0 | 11.0 | 0.00 | 0.00 | 0.00 | 44 | 1013.3 |
| 20260504191523 | 73 | 180 | 5.0 | 11.0 | 0.00 | 0.00 | 0.00 | 44 | 1013.7 |
| 20260504191024 | 74 | 203 | 5.0 | 8.0 | 0.00 | 0.00 | 0.00 | 44 | 1013.6 |
| 20260504190543 | 74 | 158 | 5.0 | 8.0 | 0.00 | 0.00 | 0.00 | 44 | 1013.7 |
| 20260504190023 | 73 | 158 | 4.0 | 9.0 | 0.00 | 0.00 | 0.00 | 45 | 1013.5 |
| 20260504185545 | 73 | 180 | 3.0 | 6.0 | 0.00 | 0.00 | 0.00 | 45 | 1013.5 |
| 20260504185043 | 73 | 158 | 5.0 | 8.0 | 0.00 | 0.00 | 0.00 | 45 | 1013.7 |
| 20260504184545 | 73 | 203 | 4.0 | 8.0 | 0.00 | 0.00 | 0.00 | 46 | 1013.7 |
| 20260504184025 | 72 | 180 | 4.0 | 10.0 | 0.00 | 0.00 | 0.00 | 46 | 1013.5 |
| 20260504183523 | 72 | 203 | 4.0 | 9.0 | 0.00 | 0.00 | 0.00 | 46 | 1013.7 |
| 20260504183023 | 73 | 158 | 2.0 | 9.0 | 0.00 | 0.00 | 0.00 | 46 | 1013.7 |
| 20260504182523 | 72 | 135 | 2.0 | 7.0 | 0.00 | 0.00 | 0.00 | 47 | 1013.8 |
| 20260504182023 | 72 | 158 | 4.0 | 6.0 | 0.00 | 0.00 | 0.00 | 48 | 1013.9 |
| 20260504181523 | 71 | 180 | 3.0 | 6.0 | 0.00 | 0.00 | 0.00 | 49 | 1014.0 |
| 20260504181023 | 71 | 158 | 5.0 | 8.0 | 0.00 | 0.00 | 0.00 | 49 | 1014.0 |
| 20260504180523 | 71 | 158 | 6.0 | 11.0 | 0.00 | 0.00 | 0.00 | 49 | 1014.2 |
| 20260504180023 | 71 | 158 | 6.0 | 10.0 | 0.00 | 0.00 | 0.00 | 49 | 1014.3 |
| 20260504175523 | 72 | 180 | 6.0 | 11.0 | 0.00 | 0.00 | 0.00 | 49 | 1014.2 |
| 20260504175024 | 71 | 180 | 6.0 | 9.0 | 0.00 | 0.00 | 0.00 | 50 | 1014.0 |
| 20260504174523 | 71 | 158 | 4.0 | 9.0 | 0.00 | 0.00 | 0.00 | 50 | 1013.8 |
| 20260504174023 | 70 | 158 | 3.0 | 6.0 | 0.00 | 0.00 | 0.00 | 50 | 1013.2 |
| 20260504173523 | 70 | 158 | 3.0 | 5.0 | 0.00 | 0.00 | 0.00 | 50 | 1013.1 |
| 20260504173023 | 70 | 135 | 4.0 | 8.0 | 0.00 | 0.00 | 0.00 | 50 | 1013.0 |
| 20260504172523 | 70 | 158 | 3.0 | 7.0 | 0.00 | 0.00 | 0.00 | 50 | 1013.3 |
| 20260504172024 | 70 | 158 | 5.0 | 9.0 | 0.00 | 0.00 | 0.00 | 50 | 1013.7 |
| 20260504171543 | 70 | 203 | 4.0 | 6.0 | 0.00 | 0.00 | 0.00 | 50 | 1013.5 |
| 20260504171023 | 70 | 180 | 6.0 | 10.0 | 0.00 | 0.00 | 0.00 | 50 | 1013.7 |
| 20260504170523 | 70 | 180 | 5.0 | 10.0 | 0.00 | 0.00 | 0.00 | 50 | 1013.6 |
| 20260504151044 | 71 | 180 | 5.0 | 10.0 | 0.00 | 0.00 | 0.00 | 41 | 1013.4 |
| 20260504150523 | 72 | 203 | 6.0 | 10.0 | 0.00 | 0.00 | 0.00 | 41 | 1013.5 |
| 20260504141023 | 71 | 180 | 1.0 | 3.0 | 0.00 | 0.00 | 0.00 | 40 | 1012.4 |
| 20260504140523 | 71 | 0.0 | 1.0 | 0.00 | 0.00 | 0.00 | 42 | 1012.6 | |
| 20260504130524 | 70 | 0.0 | 1.0 | 0.00 | 0.00 | 0.00 | 41 | 1012.5 | |
| 20260504110525 | 71 | 0.0 | 0.0 | 0.00 | 0.00 | 0.00 | 41 | 1011.9 |